Dewpoint
30 30 28 28 32 32 31 32 30 33 34 33 35 36 44 50 49 50 51 53 53 53 54 57 59 60 60 64 68 67 66 70 67 67 67 67 66 71 73 74 74 72 73 73
25 25 27 28 29 29 29 32 30 31 35 34 33 35 36 48 49 49 49 51 54 54 53 55 58 59 60 62 67 68 69 71 70 67 68 67 73 73 74 73 74 73 72 73
18 22 21 23 27 28 30 30 30 33 33 33 32 33 36 38 45 49 49 49 51 53 53 54 55 58 59 61 64 68 71 72 72 72 70 70 70 74 70 69 71 72 72 73
15 14 18 20 23 27 26 27 27 30 33 28 32 28 42 42 43 47 48 49 48 52 52 52 52 54 57 60 63 67 72 73 73 74 73 76 71 68 69 70 71 72 73 73
10 9 12 18 19 21 23 24 26 31 29 28 28 26 30 40 37 41 48 46 48 50 51 52 51 53 53 57 61 65 70 75 76 75 76 71 73 68 68 68 72 74 76 73
5 4 6 8 13 16 20 23 27 29 25 23 25 25 26 33 48 34 38 42 47 48 51 52 53 54 55 56 61 64 70 76 75 74 74 75 75 71 68 69 72 71 73 69
5 1 7 8 12 17 19 19 21 22 22 19 21 23 28 31 35 34 35 36 44 48 50 51 53 54 58 59 61 65 71 74 75 73 73 74 73 74 73 73 68 71 63 61
7 4 3 7 10 12 18 13 16 22 16 13 19 25 28 30 31 31 35 36 43 48 49 51 53 56 60 61 63 65 70 73 73 73 74 75 75 71 69 72 69 63 60 63
7 9 8 3 5 8 11 16 10 6 6 9 21 46 34 30 28 29 31 35 41 46 49 51 52 55 59 62 64 66 70 73 72 72 75 75 75 73 72 73 71 63 66 68
12 15 11 6 7 7 8 12 10 11 18 18 16 27 23 32 30 28 30 33 38 46 49 51 53 55 58 61 64 66 70 72 71 70 73 73 73 74 74 73 71 68 69 71
6 9 15 12 12 6 8 8 14 14 12 14 17 22 33 31 28 28 31 33 37 40 48 49 52 56 57 61 64 65 68 70 69 69 72 74 72 73 74 71 68 69 71 72
13 8 12 12 11 9 7 12 11 17 23 21 22 24 35 27 25 25 28 34 40 42 46 49 53 57 59 62 65 66 68 68 68 70 74 72 73 75 71 70 68 69 71 72
18 12 10 13 7 12 11 14 12 9 12 24 20 26 23 24 25 26 28 35 44 50 49 51 55 59 61 63 71 71 69 69 69 73 71 73 73 72 71 69 68 69 72 74
35 12 14 11 19 17 16 12 11 10 14 16 17 19 22 27 28 29 42 43 43 54 54 54 57 61 65 68 72 73 73 73 74 74 73 75 75 73 70 70 71 71 73 72
25 20 24 19 19 16 12 9 13 14 16 16 18 22 27 27 27 34 41 47 46 56 55 57 59 63 68 71 72 73 75 76 76 76 77 75 75 75 74 71 74 73 72 70
27 26 28 28 24 22 18 12 9 10 16 18 19 21 25 24 26 32 47 48 51 56 57 59 61 66 71 73 72 73 75 75 76 76 74 74 73 73 72 71 72 71 70 68
30 28 30 28 26 25 25 22 15 13 15 18 19 24 23 24 26 28 44 48 51 57 60 64 66 71 71 71 72 73 73 74 73 72 73 72 71 70 70 70 69 68 67 66
32 34 32 28 30 26 23 28 26 17 15 15 21 22 22 24 25 26 38 49 51 58 62 67 70 70 69 70 71 73 70 69 70 71 71 71 70 70 69 68 67 66 66 64
31 32 31 29 27 28 25 30 37 39 19 42 41 39 34 32 36 50 55 51 52 60 66 68 70 68 70 69 71 70 69 69 70 69 70 71 70 70 69 67 67 66 65 63
34 34 32 31 30 28 31 35 37 36 31 48 50 50 49 48 33 54 60 58 57 60 64 67 67 66 68 67 68 70 69 68 69 71 71 71 71 70 69 68 68 66 64 61
37 36 31 31 31 30 41 41 39 33 43 51 52 53 53 52 53 57 62 62 60 62 64 64 66 67 69 70 69 70 69 67 68 68 71 71 70 70 69 68 68 65 62 60
37 37 35 34 36 35 46 43 42 49 50 51 54 55 56 55 57 65 65 65 65 62 64 65 67 68 70 70 70 70 68 69 69 68 69 71 71 69 67 67 66 64 61 59
34 35 36 42 42 55 55 46 50 48 51 53 55 55 58 55 54 63 66 66 63 63 66 67 68 70 71 71 71 68 70 70 69 70 70 70 69 68 67 66 64 59 60 54
44 46 42 41 41 46 46 47 48 50 52 52 52 52 56 55 53 62 65 67 65 66 66 67 69 70 70 72 68 69 71 71 70 70 69 68 68 66 65 62 60 56 53 49
41 49 44 43 42 43 46 47 46 46 49 50 52 55 55 54 54 61 66 67 68 67 67 70 71 71 70 69 69 70 70 70 69 67 67 67 64 64 63 61 55 52 54 46
40 41 39 41 49 51 54 49 45 45 48 51 51 53 55 55 54 62 66 68 67 68 69 70 68 68 67 69 69 70 70 70 68 67 66 63 62 60 55 54 51 47 47 46
Lifted_Index
5 4 3 1 -0 -1 -1 -1 -1 -0 0 0 -0 -1 -2 -3 -4 -3 -3 -3 -3 -3 -2 -2 -2 -3 -3 -3 -4 -4 -4 -4 -4 -5 -5 -5 -5 -5 -6 -6 -7 -7 -6 -6
4 4 3 1 -0 -1 -1 -1 -1 -0 0 0 0 -1 -2 -3 -3 -3 -3 -3 -3 -3 -3 -2 -2 -3 -3 -3 -4 -4 -4 -4 -5 -5 -5 -5 -5 -6 -6 -6 -6 -6 -6 -6
3 3 3 2 0 -0 -0 -1 -1 -0 -0 0 0 -0 -1 -2 -2 -3 -3 -3 -3 -3 -3 -3 -2 -3 -3 -3 -3 -4 -5 -5 -5 -5 -5 -5 -5 -5 -5 -5 -5 -6 -6 -6
3 3 3 2 2 1 0 -0 -1 -0 -0 -0 -0 -0 -1 -1 -2 -2 -3 -3 -3 -3 -3 -3 -2 -2 -2 -3 -3 -4 -5 -5 -6 -5 -5 -5 -5 -5 -4 -5 -5 -6 -6 -6
3 3 3 3 3 2 1 -0 -0 -0 -0 -1 -1 -1 -1 -1 -1 -2 -2 -3 -3 -3 -3 -3 -3 -2 -2 -2 -3 -4 -5 -6 -6 -6 -5 -5 -5 -5 -5 -5 -5 -6 -6 -6
3 3 3 3 3 3 2 1 -0 -0 -1 -1 -1 -1 -1 -1 -1 -1 -1 -2 -2 -3 -3 -3 -3 -3 -3 -2 -3 -4 -5 -6 -6 -6 -6 -6 -5 -5 -5 -5 -5 -5 -5 -4
3 3 3 4 3 3 2 1 -0 -1 -1 -1 -1 -1 -1 -1 -0 -0 -0 -1 -2 -3 -3 -3 -3 -4 -4 -3 -4 -5 -6 -7 -7 -6 -6 -6 -6 -6 -6 -6 -5 -4 -3 -2
1 1 3 3 3 2 2 1 -0 -1 -1 -1 -1 -1 -1 -1 -0 -0 -0 -1 -2 -3 -3 -4 -4 -4 -4 -4 -5 -5 -6 -7 -7 -7 -7 -7 -7 -6 -6 -6 -5 -3 -2 -1
-0 1 2 3 3 2 1 1 -0 -1 -1 -1 -1 -0 -1 -1 -0 -0 -0 -1 -1 -2 -3 -4 -4 -4 -4 -5 -5 -6 -7 -7 -7 -7 -7 -7 -7 -7 -6 -6 -5 -3 -2 -2
0 1 1 2 3 2 2 1 -0 -1 -1 -1 -1 -1 -1 -1 -1 -1 -1 -1 -1 -2 -3 -4 -4 -4 -4 -5 -6 -6 -7 -8 -7 -7 -7 -8 -8 -7 -7 -6 -4 -3 -3 -4
1 0 0 1 2 2 1 1 0 -0 -1 -1 -1 -1 -0 -1 -1 -1 -1 -1 -1 -2 -3 -4 -4 -4 -4 -5 -6 -6 -7 -7 -7 -7 -7 -8 -8 -8 -7 -6 -4 -4 -4 -5
1 0 -0 -0 1 1 1 1 0 -0 -1 -1 -1 -1 -1 -1 -1 -1 -1 -1 -2 -2 -3 -4 -4 -4 -5 -5 -6 -7 -7 -7 -6 -7 -8 -8 -8 -8 -8 -6 -5 -5 -5 -5
1 0 -1 -1 -0 0 1 0 -0 -1 -1 -1 -1 -1 -1 -1 -1 -1 -1 -1 -2 -3 -4 -4 -5 -5 -5 -6 -7 -7 -7 -7 -7 -7 -8 -9 -9 -9 -8 -7 -6 -6 -6 -6
1 0 -1 -1 -1 -0 -0 0 -0 -1 -1 -1 -1 -1 -1 -1 -1 -1 -2 -2 -3 -4 -5 -5 -5 -6 -6 -7 -7 -7 -8 -8 -8 -8 -9 -10 -9 -9 -7 -6 -6 -6 -6 -6
1 0 -1 -1 -1 -1 -1 -0 -1 -1 -1 -1 -1 -1 -1 -1 -1 -1 -2 -3 -4 -5 -5 -5 -6 -6 -7 -8 -8 -8 -8 -9 -9 -9 -10 -9 -9 -8 -6 -5 -5 -5 -5 -4
-0 -0 -0 -0 -0 -1 -1 -1 -1 -1 -1 -1 -1 -1 -1 -1 -1 -1 -2 -3 -4 -6 -6 -6 -6 -7 -8 -8 -8 -8 -8 -8 -8 -9 -9 -8 -7 -6 -5 -4 -3 -3 -2 -2
-1 -1 -1 -0 -0 -0 -0 -1 -1 -1 -1 -1 -1 -1 -1 -1 -1 -1 -2 -4 -5 -6 -7 -7 -8 -8 -8 -8 -8 -8 -7 -7 -7 -7 -7 -6 -5 -4 -3 -2 -1 -1 -1 -1
-1 -1 -1 -1 -0 -0 -0 -0 -1 -1 -1 -1 -1 -1 -1 -1 -1 -2 -3 -4 -5 -7 -8 -8 -9 -9 -8 -7 -7 -7 -6 -5 -5 -5 -5 -4 -3 -3 -2 -1 -1 -0 -0 -0
-2 -2 -1 -1 -1 -0 -0 -0 -1 -1 -1 -2 -3 -2 -2 -2 -2 -4 -5 -5 -6 -7 -8 -9 -9 -8 -7 -7 -6 -6 -5 -4 -4 -4 -4 -4 -3 -3 -2 -1 -1 -0 0 -0
-2 -2 -1 -1 -1 -1 -1 -1 -1 -1 -2 -3 -4 -4 -4 -3 -4 -5 -6 -6 -6 -7 -8 -9 -8 -8 -7 -7 -6 -6 -5 -4 -4 -4 -4 -4 -3 -2 -2 -1 -1 0 0 0
-2 -2 -2 -1 -1 -1 -1 -2 -2 -2 -3 -4 -5 -5 -5 -5 -5 -6 -7 -7 -7 -7 -8 -8 -8 -8 -8 -7 -7 -6 -6 -5 -4 -4 -4 -4 -4 -3 -2 -1 -0 -0 1 1
-2 -2 -2 -2 -1 -1 -2 -2 -3 -3 -3 -4 -5 -5 -6 -6 -6 -7 -7 -7 -7 -7 -8 -8 -8 -8 -8 -8 -7 -7 -6 -5 -4 -4 -4 -4 -4 -3 -2 -1 -0 0 2 3
-1 -2 -2 -1 -1 -2 -2 -2 -3 -3 -3 -4 -4 -5 -5 -5 -6 -7 -8 -8 -7 -7 -8 -8 -9 -9 -8 -8 -7 -7 -6 -6 -5 -5 -5 -4 -4 -3 -2 -1 -0 1 4 5
-1 -1 -1 -1 -1 -2 -2 -2 -2 -3 -3 -3 -4 -4 -5 -5 -5 -7 -8 -8 -8 -8 -8 -9 -9 -9 -8 -8 -7 -6 -6 -6 -5 -5 -5 -4 -4 -3 -2 -1 1 3 5 6
-1 -1 -1 -1 -1 -2 -2 -2 -2 -2 -3 -3 -4 -4 -5 -5 -6 -7 -8 -8 -8 -8 -8 -9 -9 -8 -8 -7 -6 -6 -6 -5 -5 -5 -4 -4 -3 -2 -1 1 3 4 6 7
-0 -0 -0 -1 -1 -2 -2 -2 -1 -1 -2 -3 -3 -4 -5 -5 -6 -7 -8 -8 -8 -8 -8 -9 -8 -8 -7 -7 -6 -6 -5 -5 -5 -4 -4 -3 -2 -1 -0 2 4 5 6 7